Weather in Zasheyek

Russia / Murmansk Oblast     67°24′08″N   32°32′55″E
temp.,
°C
wind,
m/s
gust,
m/s
humid.,
%
clouds,
%
prec.,
mm/h
press.,
hPa
HPBL,
m
15 may, sat
sat1500:00+1ene3692100 0.0 1019255
03:000ene3691100 0.0 1019266
06:000e4789100 0.0 1018307
09:00+1e4887100 0.0 1018416
12:00+2e4784100 0.0 1018397
15:00+4e458075 0.0 1017426
18:00+4e458184 0.0 1016401
21:00+2e3689100 0.0 1015249
16 may, sun
sun1600:00+2e3691100 0.0 1015245
03:00+2ene3793100 0.1 1014236
06:00+2e3692100 0.0 1014241
09:00+3e3690100 0.0 1013242
12:00+4e3687100 0.0 1013310
15:00+5e358497 0.0 1013337
18:00+6ene358198 0.0 1012325
21:00+4e3488100 0.0 1012129
17 may, mon
mon1700:00+4e2290100 0.0 101336
03:00+4ese2191100 0.1 101322
06:00+4se1290100 0.0 101455
09:00+6se2383100 0.1 1014240
12:00+9s247493 0.0 1015551
15:00+10ssw3574100 0.0 1015466
18:00+11s35715 0.0 1014523
21:00+8s118114 0.0 101523
18 may, tue
tue1800:00+5e2289100 0.0 101628
03:00+3e24885 0.0 101579
06:00+5e3681100 0.0 1014197
09:00+7ese3778100 0.0 1013266
12:00+7ese2293100 1.0 101252
15:00+10ese3790100 1.3 1011304
18:00+9e239380 0.1 1010224
21:00+8ese2399100 0.2 100990
19 may, wed
wed1900:00+8e24100100 0.6 100897
03:00+9e41099100 4.5 1004258
06:00+9ese37100100 0.7 1003254
09:00+10se139899 1.4 1002154
12:00+12e129381 0.2 1002218
15:00+16ese257928 0.4 999560
18:00+15ese358428 1.3 998127
21:00+12se119327 1.6 99720